GFSNIL_prec_cloud_003.txt.gz
Cloud_Cover
5 1 5 0 0 0 0 0 0 4 12 100 99 100 100 100 100 100 100 100 100 100
0 5 0 0 0 0 0 0 5 16 35 96 100 100 100 100 100 100 100 100 100 100
0 0 0 0 0 1 4 5 76 100 100 100 100 100 100 100 100 100 100 100 100 96
0 0 0 4 5 5 56 87 100 100 100 100 100 100 100 100 100 100 100 100 100 100
4 3 2 4 37 89 100 100 100 94 73 100 100 100 100 100 100 100 100 100 100 100
0 0 5 36 100 100 100 100 100 100 100 100 100 100 100 92 75 100 100 100 100 100
5 5 60 100 100 91 100 100 100 100 100 100 100 100 100 100 100 74 100 100 100 100
87 100 100 87 100 100 100 100 100 100 100 100 100 100 100 100 100 100 100 100 100 86
100 100 100 100 100 100 100 100 100 100 100 100 100 100 100 100 100 100 100 72 20 5
100 92 100 100 100 100 100 100 100 100 100 100 100 100 100 83 82 40 5 5 5 5
94 92 97 100 100 100 100 100 100 100 100 100 100 100 60 36 5 5 5 5 5 41
100 98 100 100 100 100 100 100 94 93 98 100 100 75 56 5 5 5 5 10 16 96
100 100 100 100 100 100 100 100 100 100 100 89 78 38 5 5 98 100 97 100 91 59
100 71 66 100 100 100 100 99 85 58 42 10 5 5 5 66 100 98 100 91 78 95

GFSNIL_prec_cloud_006.txt.gz
Cloud_Cover
5 20 69 26 4 5 0 0 75 18 0 4 5 5 51 95 100 100 100 100 100 100
92 65 76 85 6 5 5 5 22 5 5 6 67 87 97 100 100 100 100 100 100 100
59 60 5 3 3 5 5 5 78 80 66 100 100 97 57 100 100 100 100 100 100 100
73 20 5 5 1 4 5 78 95 96 71 100 100 100 100 100 100 100 100 100 100 100
100 95 25 6 96 100 100 100 38 97 100 100 100 100 100 100 100 100 100 100 100 100
100 100 100 100 100 88 81 57 91 100 100 100 100 100 100 100 100 100 100 100 100 100
100 100 100 94 33 94 100 98 100 100 100 100 100 100 100 100 100 100 100 100 100 100
100 100 100 100 99 79 90 100 100 100 100 100 100 100 100 100 100 100 91 76 79 86
100 100 100 85 83 100 100 100 100 100 100 100 100 100 100 100 100 100 100 100 100 89
84 86 100 87 88 52 100 100 100 100 100 100 100 100 100 100 100 100 100 56 53 5
46 98 100 99 85 94 90 74 100 100 100 100 100 100 99 100 98 93 70 77 5 20
14 6 86 97 81 100 100 100 100 99 83 64 85 31 49 58 96 92 37 6 68 88
5 5 5 5 75 100 100 100 99 100 99 56 12 5 11 41 85 88 84 15 57 52
24 5 5 7 45 76 60 36 16 9 5 5 5 5 5 49 100 99 100 96 94 100

GFSNIL_prec_cloud_009.txt.gz
Cloud_Cover
87 90 73 85 10 34 13 10 5 13 5 6 90 91 87 19 100 100 100 100 100 100
67 64 69 95 100 99 100 98 99 79 54 10 41 28 96 100 100 100 100 100 100 100
97 74 97 73 42 85 97 66 33 39 96 58 92 98 100 100 100 100 100 100 100 100
100 57 70 36 70 99 76 88 81 65 76 95 100 100 100 100 100 100 100 100 100 100
86 79 100 88 22 31 97 88 98 100 100 100 100 100 100 100 100 100 100 100 100 100
99 96 50 54 95 51 98 100 100 99 100 100 100 100 100 100 100 100 100 100 100 100
84 48 95 100 98 99 100 97 96 95 100 100 100 100 100 100 100 100 100 100 100 100
48 100 96 97 100 100 100 100 100 93 100 100 84 100 100 100 100 100 100 100 100 100
73 22 15 5 5 8 98 100 100 100 100 100 100 100 100 100 87 100 100 100 100 98
13 5 5 5 5 5 5 5 5 5 51 97 96 89 94 54 18 19 46 82 100 100
83 48 5 5 5 5 5 5 5 6 23 50 50 32 41 67 100 100 100 100 100 100
78 70 5 5 5 5 5 5 31 30 6 5 5 5 5 28 96 100 97 97 98 100
99 23 5 5 5 5 5 5 6 5 5 5 5 5 7 95 100 100 100 100 100 99
54 63 5 5 5 5 4 5 5 5 5 25 7 10 69 98 100 100 100 100 100 100

GFSNIL_prec_cloud_015.txt.gz
Cloud_Cover
53 93 95 82 100 100 100 100 100 28 97 99 100 100 100 100 100 100 85 79 74 100
59 96 100 93 100 100 100 100 100 31 89 100 100 100 99 88 100 96 82 85 62 100
98 94 93 100 100 100 100 98 61 78 100 100 100 100 100 100 100 100 100 100 100 100
86 100 100 100 49 94 76 70 73 90 95 99 78 100 92 100 100 100 100 100 99 94
100 100 88 100 100 100 100 100 96 73 55 92 92 98 100 100 100 100 100 100 100 100
100 100 96 100 100 96 100 99 100 90 61 83 68 80 81 93 78 80 98 100 100 99
33 61 94 100 100 100 99 96 33 5 5 5 5 5 7 27 18 18 41 76 98 96
68 95 100 100 99 97 73 5 5 5 5 5 5 73 5 4 5 5 6 19 35 94
98 99 100 100 97 93 5 5 5 5 24 96 100 98 5 3 5 5 5 42 67 90
76 100 100 100 100 100 24 7 62 95 100 100 100 76 5 5 5 5 33 98 100 100
97 100 100 100 100 100 100 100 100 100 98 92 100 96 7 5 37 94 100 100 100 100
97 99 100 100 100 100 100 100 100 92 90 97 99 96 90 27 100 100 100 100 100 100
96 100 100 100 100 100 100 100 30 23 97 100 97 100 100 91 100 100 100 100 100 94
90 100 100 100 100 100 100 81 64 15 82 98 100 95 100 96 100 100 100 100 100 100

GFSNIL_prec_cloud_018.txt.gz
Cloud_Cover
100 93 87 56 48 72 100 100 86 15 5 28 35 74 78 100 100 99 38 87 94 88
100 100 100 100 100 100 100 100 94 60 90 64 85 100 100 100 100 87 91 100 100 100
100 96 65 100 96 88 63 8 5 5 52 78 71 43 76 51 60 60 90 100 100 100
39 10 9 49 6 5 2 4 5 67 5 14 37 89 98 82 94 82 61 95 100 100
5 5 84 47 5 1 5 5 5 36 5 39 19 38 26 8 6 6 16 10 88 100
5 88 5 5 2 5 5 5 22 8 5 5 5 3 5 11 90 5 4 1 13 78
4 1 5 1 0 12 61 20 5 5 5 5 21 5 5 5 5 5 0 0 0 0
54 99 37 5 5 5 64 8 5 5 5 5 20 80 31 5 1 0 0 0 0 1
66 5 5 2 2 5 98 5 5 99 96 17 66 62 1 5 5 5 5 3 2 5
73 36 47 17 5 8 54 27 86 100 94 7 20 5 5 5 53 42 5 5 25 16
97 98 72 100 6 97 71 95 100 100 78 5 5 5 14 5 5 5 5 39 7 11
4 100 99 100 60 100 100 99 100 49 34 5 5 5 85 89 57 5 5 5 75 97
98 100 100 100 100 100 100 100 24 5 5 5 5 79 100 91 100 98 69 99 100 92
8 75 18 93 100 100 100 92 5 5 5 5 25 96 100 100 98 100 80 55 42 86

GFSNIL_prec_cloud_021.txt.gz
Cloud_Cover
97 93 68 83 89 31 5 5 5 5 1 17 100 79 93 86 35 5 5 5 64 79
94 60 99 94 52 5 5 5 5 1 3 81 98 29 46 35 52 67 61 68 79 99
5 5 5 18 33 5 5 5 1 0 1 5 5 5 51 99 5 70 100 92 87 75
5 5 5 5 4 0 0 0 2 2 0 5 45 62 16 5 4 0 3 5 7 4
5 7 4 0 0 0 0 0 0 0 1 4 5 5 5 5 5 5 38 93 70 23
73 64 11 5 4 10 30 2 2 0 0 0 4 5 35 70 83 54 87 94 42 4
63 39 7 95 39 100 79 91 84 20 0 4 5 13 54 20 5 5 0 1 2 0
5 19 51 81 100 92 100 99 100 34 4 15 5 5 5 2 4 4 5 5 5 0
5 100 82 30 100 100 100 100 97 28 58 5 4 5 30 12 5 4 5 1 0 1
5 66 73 47 100 100 100 58 85 72 100 6 54 99 95 8 5 5 5 5 2 5
0 0 1 5 100 100 100 100 93 84 83 61 92 19 2 15 32 13 60 36 70 10
0 4 21 82 94 100 93 100 64 36 30 81 7 4 5 5 12 63 68 26 49 50
0 5 21 16 13 46 98 97 7 5 5 5 5 5 97 54 93 77 30 88 100 99
5 4 13 93 72 100 96 6 5 5 5 5 5 5 66 87 100 100 98 100 100 100

GFSNIL_prec_cloud_027.txt.gz
Cloud_Cover
88 83 57 9 5 5 5 0 0 1 5 5 5 5 36 4 0 0 0 0 0 20
3 4 5 5 5 5 2 0 1 5 44 59 100 100 99 67 6 4 0 3 0 0
5 5 5 5 2 2 4 5 24 100 92 95 62 100 87 91 97 82 7 39 0 3
5 5 3 5 5 5 5 46 71 48 99 100 98 100 97 100 100 100 100 100 5 5
5 5 5 5 5 87 68 88 100 100 85 100 100 100 100 100 100 100 92 6 5 5
1 1 11 23 5 0 0 0 0 3 68 89 100 100 91 72 98 74 15 32 8 5
5 5 7 0 0 0 0 0 7 76 60 100 94 100 100 100 98 38 88 54 5 5
5 5 0 0 0 0 3 46 96 100 100 100 99 100 100 79 14 5 5 5 5 5
5 0 0 0 0 5 70 94 100 100 87 5 38 95 50 5 5 5 79 93 56 5
5 2 0 0 18 98 88 17 68 11 5 35 86 5 9 8 5 8 22 7 15 5
5 0 5 6 32 100 100 37 5 44 90 68 6 6 5 18 5 5 5 5 5 18
0 5 5 5 5 72 53 46 34 74 84 75 5 3 9 52 8 5 5 5 5 99
0 5 4 5 5 17 70 80 88 70 83 79 5 2 5 63 40 27 84 5 5 65
22 85 0 3 5 5 5 14 80 100 53 5 4 4 5 64 33 82 53 82 73 74

GFSNIL_prec_cloud_030.txt.gz
Cloud_Cover
63 5 5 5 5 5 5 5 5 5 4 5 5 10 15 8 70 86 5 39 56 5
5 5 5 5 5 23 43 5 5 5 6 84 100 98 89 100 99 93 97 99 87 25
5 5 6 30 44 13 5 5 5 58 38 5 34 24 98 89 100 100 100 51 5 26
5 5 5 5 4 5 5 2 0 0 1 5 2 100 98 74 94 97 93 61 42 79
5 5 5 5 2 0 0 0 0 1 40 88 16 82 100 100 100 100 100 88 6 5
5 5 1 0 2 5 5 1 0 15 100 100 99 72 100 100 98 61 62 5 5 5
5 4 5 5 5 5 0 2 5 43 90 82 96 90 78 37 19 5 5 5 5 5
14 18 31 7 5 5 5 81 70 70 78 76 12 5 5 13 12 5 5 10 34 16
99 100 76 77 5 5 8 77 35 24 5 5 5 7 5 10 5 5 5 10 26 5
100 100 43 5 24 5 57 45 25 5 5 5 44 5 5 7 5 5 5 5 5 11
100 80 5 4 25 20 37 93 46 10 5 51 6 5 5 5 5 5 5 5 8 51
79 5 2 5 0 5 29 86 84 10 53 5 60 4 5 5 5 5 5 5 5 98
5 5 5 0 22 5 33 5 14 93 48 93 5 5 5 52 60 34 44 10 16 31
5 5 5 24 7 5 5 6 52 87 97 9 5 5 5 94 100 74 84 74 46 51

GFSNIL_prec_cloud_033.txt.gz
Cloud_Cover
48 67 5 0 0 2 5 5 5 5 5 5 6 6 87 28 10 72 22 17 24 96
91 63 5 5 5 5 9 51 6 5 5 1 0 0 5 5 7 57 98 5 5 5
76 6 12 10 50 26 17 15 5 4 3 4 1 9 87 85 72 94 26 31 5 13
73 63 7 5 5 5 5 5 4 5 5 2 5 47 98 6 5 55 95 82 71 5
5 5 5 5 5 5 5 5 5 5 5 5 32 90 97 82 100 94 82 81 78 5
5 21 5 10 76 7 10 11 5 33 84 87 64 89 89 89 34 81 9 70 5 5
5 44 99 100 96 99 96 14 91 69 84 75 86 42 5 5 5 5 5 5 5 30
99 98 100 100 100 83 7 8 39 98 73 11 5 5 5 5 5 5 5 5 3 5
100 100 100 100 53 55 16 10 44 30 5 5 5 5 5 5 5 5 0 0 5 5
100 100 100 22 50 29 37 11 47 30 40 5 5 5 5 5 5 5 4 5 7 59
100 100 78 34 5 5 8 82 97 96 78 10 5 5 5 5 5 5 5 16 85 100
100 98 7 25 6 2 2 94 70 28 8 79 28 5 5 5 20 65 42 98 100 100
72 45 41 100 5 2 32 99 28 82 93 72 58 5 7 5 87 100 100 100 100 100
85 86 100 82 5 5 5 5 15 78 66 68 5 24 10 5 98 99 100 100 78 43

GFSNIL_prec_cloud_036.txt.gz
Cloud_Cover
97 77 79 25 5 5 5 5 5 5 5 5 5 5 5 34 44 86 32 90 87 94
91 59 67 6 5 13 7 5 5 5 5 5 5 5 6 40 13 86 94 69 67 100
34 92 70 73 88 27 5 5 5 5 44 12 5 6 71 16 27 100 83 92 100 100
90 76 75 32 5 5 5 5 5 8 5 5 9 79 80 35 83 100 90 96 100 100
20 9 5 5 5 5 5 38 87 17 5 26 100 100 84 43 98 95 99 100 100 100
5 5 5 5 5 18 87 99 7 6 80 100 99 95 91 100 100 93 85 84 97 65
19 5 5 49 82 100 98 26 24 35 42 94 94 95 69 33 95 93 73 33 8 5
16 36 87 100 100 100 55 26 14 44 70 54 37 11 20 42 33 67 5 5 5 4
93 100 100 100 95 86 19 64 83 94 97 95 92 5 5 3 5 5 5 5 5 5
100 100 100 98 52 46 10 77 100 100 97 100 100 5 5 5 5 5 5 5 5 18
100 100 94 99 86 18 77 70 100 100 100 88 98 5 5 5 5 5 52 18 47 95
94 96 100 98 100 94 100 80 98 96 100 100 100 10 5 5 51 98 96 94 98 93
100 100 100 100 100 100 97 85 92 100 100 89 77 59 5 5 32 98 99 98 100 100
100 100 100 100 100 98 98 93 100 74 78 91 88 89 5 5 17 94 98 99 98 100

GFSNIL_prec_cloud_039.txt.gz
Cloud_Cover
5 44 100 23 82 81 87 21 5 5 5 5 5 5 5 5 52 91 45 100 100 43
16 100 84 39 28 85 15 5 5 5 5 5 5 5 5 5 97 6 48 69 78 15
100 100 82 56 90 5 14 5 5 5 5 5 5 5 5 21 70 56 8 91 100 92
100 35 9 77 5 10 5 5 5 5 5 5 5 5 5 81 74 94 100 99 100 92
98 18 6 5 5 5 5 5 5 5 5 5 5 6 33 91 98 95 100 89 99 100
46 10 12 9 53 22 5 5 5 5 5 46 88 97 99 64 55 93 100 100 94 88
15 55 6 88 34 5 5 5 42 28 64 73 97 100 100 100 96 97 100 86 26 36
78 79 99 78 60 65 50 67 89 100 90 100 100 98 14 16 6 6 7 6 42 26
93 100 83 94 96 81 99 100 100 100 100 100 97 78 5 5 5 5 5 53 22 5
100 94 100 100 92 100 100 100 100 100 100 100 100 5 5 5 5 5 53 78 70 46
100 100 100 100 100 100 100 100 100 100 100 100 100 5 5 5 4 42 95 99 93 84
100 100 100 100 100 100 100 100 100 100 98 100 100 29 5 5 5 79 95 91 92 70
100 100 100 100 100 100 100 100 100 79 91 100 99 71 85 5 6 84 97 93 92 95
100 100 100 100 100 100 100 100 15 63 100 100 100 99 80 6 5 80 99 97 99 100

GFSNIL_prec_cloud_042.txt.gz
Cloud_Cover
5 5 68 100 100 100 53 5 5 5 5 5 5 5 0 0 0 1 42 78 42 88
5 5 49 74 83 100 95 5 5 5 5 5 5 5 5 5 5 5 33 29 5 5
5 68 100 100 100 92 69 22 11 5 22 48 11 5 5 5 5 7 9 5 22 93
64 100 100 100 100 100 45 15 5 79 100 42 9 6 57 38 5 44 14 23 68 66
99 100 100 100 100 48 18 62 100 100 98 48 48 99 100 78 5 23 79 5 76 27
100 100 100 100 40 34 100 100 100 97 97 99 84 54 90 6 70 100 20 37 84 54
100 100 91 88 96 99 99 100 91 95 100 100 100 100 87 92 73 100 44 4 6 5
100 100 100 99 100 100 100 100 100 100 100 100 100 100 100 100 64 22 78 0 5 5
100 100 100 100 100 100 100 100 100 100 100 100 100 100 70 10 8 5 0 1 5 5
100 100 100 100 100 100 100 100 100 100 100 100 100 100 100 99 72 96 0 5 8 5
100 100 100 100 100 100 100 100 100 100 100 100 100 100 100 100 37 5 0 32 51 5
100 100 100 100 100 100 100 100 100 100 100 100 100 99 100 80 81 5 4 5 5 73
100 100 100 100 100 100 100 100 100 100 100 100 77 45 95 64 6 5 5 5 16 5
100 100 100 100 100 100 100 100 100 100 100 91 26 32 45 97 5 5 5 5 5 47

GFSNIL_prec_cloud_045.txt.gz
Cloud_Cover
0 3 6 23 99 100 99 94 96 100 100 100 5 5 5 5 5 13 29 21 6 86
5 5 77 96 86 99 88 92 100 100 100 54 5 10 96 92 97 67 5 6 23 90
24 29 88 60 86 100 100 100 89 100 70 16 22 74 56 40 12 25 93 90 79 75
62 92 100 100 93 100 97 100 100 85 6 75 100 98 99 85 75 100 100 100 100 100
100 100 100 100 100 100 100 96 68 78 69 100 91 91 100 100 95 100 100 100 100 100
100 100 100 100 99 100 81 88 89 77 100 91 100 76 100 93 97 100 100 100 100 6
100 100 100 100 98 99 74 96 68 100 76 96 100 100 100 100 100 100 100 100 75 81
100 100 100 94 100 100 100 91 100 100 98 100 100 100 100 100 99 100 98 100 100 100
100 100 92 100 100 100 100 100 100 100 100 100 100 100 100 100 100 100 100 100 100 55
80 78 100 100 100 100 100 100 100 100 100 100 100 100 100 100 100 100 100 100 5 100
97 100 100 100 100 100 100 100 100 100 100 100 100 100 100 100 100 100 100 100 35 5
100 100 100 100 100 100 100 100 100 100 100 100 100 100 100 100 100 100 100 82 5 2
100 100 100 100 100 100 100 100 100 100 100 100 100 100 100 100 100 93 85 8 3 5
100 100 100 100 100 100 100 100 100 100 100 100 100 100 100 100 93 8 5 5 5 5

GFSNIL_prec_cloud_048.txt.gz
Cloud_Cover
1 5 5 5 62 98 100 100 100 33 98 100 94 90 61 58 5 5 5 5 5 5
56 76 53 74 100 100 100 100 100 100 100 100 100 92 83 55 9 100 10 5 5 5
100 100 100 100 100 100 100 90 100 100 99 68 92 99 84 60 17 71 55 18 63 85
100 99 100 100 100 100 100 100 100 97 14 76 35 99 100 45 9 79 64 78 76 97
100 100 100 100 100 100 100 100 100 97 41 76 64 100 100 80 90 100 100 100 100 100
92 99 100 46 100 100 100 98 100 46 82 96 97 100 100 100 98 100 100 100 100 100
37 100 12 98 100 68 11 73 100 86 8 92 100 100 100 100 100 100 100 100 100 100
93 100 85 98 100 96 73 98 99 96 100 98 90 99 100 100 100 100 100 100 100 100
100 94 100 100 100 67 100 99 100 100 100 100 100 100 100 100 100 100 100 100 100 100
98 100 100 100 87 100 100 100 98 100 100 100 100 100 100 100 100 100 100 100 100 81
82 84 99 100 100 100 100 98 100 100 100 100 100 100 100 100 100 100 88 62 100 96
96 100 100 100 100 100 100 100 100 84 99 100 100 100 100 82 62 5 8 93 100 76
100 100 100 100 100 99 100 56 97 100 100 81 23 5 34 37 5 5 5 48 74 5
100 100 100 99 99 86 42 62 2 1 0 0 5 17 91 80 5 5 5 5 5 89

GFSNIL_prec_cloud_051.txt.gz
Cloud_Cover
5 9 90 25 5 98 72 98 44 100 100 87 100 100 88 100 23 5 6 88 64 94
2 3 4 79 81 75 51 100 97 100 100 100 100 100 100 100 67 57 82 59 95 90
0 14 71 100 100 90 100 34 100 100 100 100 100 100 96 100 6 92 90 84 61 90
36 20 100 78 55 98 36 100 100 100 100 100 100 100 100 100 87 70 66 91 98 58
51 5 40 100 98 79 100 95 100 100 100 100 100 91 100 100 100 100 65 45 73 100
60 37 99 100 100 96 56 87 100 100 97 99 100 99 89 95 99 94 90 96 100 100
84 70 94 100 100 100 88 96 100 100 98 100 74 87 34 15 16 83 92 95 100 100
99 100 100 100 100 100 95 98 100 100 100 95 94 97 29 66 100 100 100 95 44 58
100 100 100 100 100 100 100 100 100 100 100 100 99 100 98 100 74 16 5 5 5 5
100 100 100 100 100 100 100 100 100 100 96 98 100 100 68 5 5 5 5 5 5 82
100 100 100 100 100 100 100 100 100 94 100 100 68 0 5 5 5 5 5 5 12 80
100 100 100 100 100 100 100 100 91 57 27 2 2 5 0 2 5 5 5 5 5 42
100 100 100 87 100 100 99 50 54 31 5 5 5 5 0 5 6 57 5 5 5 7
100 98 100 94 87 63 18 58 79 46 26 7 21 1 0 5 12 51 17 5 5 26

GFSNIL_prec_cloud_054.txt.gz
Cloud_Cover
100 100 100 100 58 82 81 84 72 84 96 100 100 100 100 100 100 100 100 63 97 93
100 100 100 26 5 5 86 99 97 68 64 99 100 100 100 100 100 100 100 80 56 99
100 92 62 64 69 91 99 100 67 51 100 100 99 100 100 100 100 100 14 30 93 83
58 19 100 100 100 100 100 100 92 97 100 100 100 100 100 100 87 75 55 52 78 89
100 100 100 100 100 100 100 100 100 100 100 100 100 100 100 98 14 58 86 36 67 75
100 100 100 100 100 100 94 100 100 100 79 98 99 99 80 78 65 55 84 72 5 5
92 92 100 100 100 100 90 100 100 83 100 100 100 91 88 93 96 97 24 4 5 5
100 66 100 100 100 100 100 100 100 30 98 100 100 100 100 100 76 6 5 5 5 5
100 100 100 100 100 100 100 100 100 100 100 100 100 98 82 44 5 5 5 5 5 55
100 100 100 100 100 100 99 100 100 100 98 95 100 98 11 5 5 5 12 80 45 20
100 100 100 100 100 100 100 100 100 100 99 96 100 21 11 10 5 58 100 67 5 5
100 100 100 100 100 100 100 100 73 94 58 76 100 95 25 11 98 100 62 5 5 5
100 100 100 100 100 100 95 99 100 88 100 100 83 42 66 100 99 18 5 5 88 92
100 100 99 100 100 100 100 100 100 100 100 97 100 100 100 100 12 5 5 82 100 100

GFSNIL_prec_cloud_057.txt.gz
Cloud_Cover
100 100 100 100 100 100 100 95 9 100 97 95 98 46 98 100 100 100 100 100 86 100
100 100 100 100 100 100 96 85 100 100 100 100 75 100 92 98 100 100 100 95 100 99
100 100 100 100 100 100 13 80 97 100 98 96 100 100 100 100 100 100 100 75 87 86
100 100 100 100 100 96 99 100 100 100 100 100 100 100 100 100 100 100 99 94 80 83
100 100 100 100 100 100 100 100 100 100 100 100 100 100 100 100 99 100 100 100 100 97
100 100 100 100 100 100 100 100 100 100 100 100 100 100 100 100 100 100 100 86 53 6
100 100 100 100 100 96 89 100 100 100 100 100 100 100 100 100 97 100 84 70 6 45
100 100 100 100 100 84 79 100 100 100 100 100 100 97 100 99 100 100 78 6 28 8
100 100 84 99 50 100 100 100 100 100 100 100 100 100 100 100 63 5 5 31 5 13
83 100 87 92 100 100 100 100 100 100 100 100 100 93 100 96 12 6 51 32 25 22
92 100 100 100 100 100 100 100 100 100 100 100 100 100 98 89 42 39 27 71 67 100
99 100 100 100 100 100 100 100 85 97 87 67 100 100 83 80 80 36 83 58 100 94
98 100 100 100 96 81 90 76 20 5 57 84 71 31 41 58 35 33 31 69 69 12
99 86 49 5 5 7 27 35 5 10 8 38 33 14 44 99 46 11 5 5 5 5

GFSNIL_prec_cloud_060.txt.gz
Cloud_Cover
88 100 100 100 100 100 100 92 100 100 100 100 100 80 100 100 100 99 99 100 100 100
79 100 100 100 100 100 100 100 100 100 100 92 100 100 100 100 100 100 100 100 100 100
100 100 100 100 100 100 100 100 100 100 99 97 100 100 100 100 100 100 100 100 91 93
100 100 100 100 100 100 100 100 100 100 100 100 100 100 100 100 100 100 100 100 100 93
100 100 100 100 100 100 100 100 100 100 100 100 100 100 100 100 100 100 100 87 99 100
100 100 100 100 100 100 100 100 100 100 100 100 100 100 100 100 80 100 100 100 100 100
100 100 100 100 100 100 100 100 100 100 100 100 100 100 100 100 100 96 88 99 98 100
100 100 100 100 100 100 100 100 100 100 100 100 100 100 100 100 100 98 100 100 100 100
100 100 100 100 100 100 100 100 100 100 100 100 100 100 100 100 100 100 100 100 100 52
94 91 97 74 41 96 92 100 100 100 100 100 100 100 92 42 96 88 72 75 5 39
28 24 66 80 45 100 100 100 100 100 100 99 62 20 28 26 5 5 5 8 22 75
64 71 100 100 100 100 100 100 99 100 91 76 58 24 5 5 5 5 11 5 5 5
87 42 57 100 99 100 96 88 86 48 73 48 17 5 5 5 5 5 5 5 5 6
87 100 100 99 77 92 87 63 30 84 30 6 5 5 9 5 9 55 61 74 43 46

GFSNIL_prec_cloud_063.txt.gz
Cloud_Cover
60 32 32 48 100 100 100 100 100 100 100 100 100 100 100 100 100 100 99 100 100 100
100 93 91 68 100 100 100 100 100 100 100 100 100 100 100 100 100 100 100 100 100 100
99 100 100 100 100 100 100 100 100 100 100 100 100 100 100 100 100 100 100 100 100 100
94 97 100 100 100 100 100 100 100 100 100 100 100 100 100 100 100 100 100 100 100 100
98 100 100 100 100 100 100 100 100 100 100 100 100 100 100 100 100 100 100 100 100 100
100 100 100 100 100 100 100 100 100 100 100 100 100 100 100 100 100 100 100 100 100 100
100 100 100 100 100 100 100 100 100 100 100 100 100 100 100 100 100 100 100 100 94 95
100 100 100 100 100 100 100 100 100 100 100 100 100 100 100 100 100 100 100 100 76 93
100 100 100 100 100 100 100 100 100 100 100 100 100 100 100 100 100 100 77 86 88 100
100 100 100 100 100 95 68 89 100 100 100 100 89 95 94 44 37 28 56 96 96 96
82 56 51 61 57 48 80 100 100 80 88 75 64 76 59 94 100 98 44 39 29 5
54 60 59 26 49 54 98 100 75 70 87 99 100 93 29 25 11 9 33 5 5 5
94 100 96 67 76 62 88 100 100 100 75 68 34 7 6 6 5 13 5 5 9 5
88 98 72 76 100 100 100 100 100 99 100 100 100 18 13 24 5 5 6 5 5 5

GFSNIL_prec_cloud_066.txt.gz
Cloud_Cover
100 70 6 5 4 5 5 67 100 100 100 100 100 100 100 100 100 100 100 100 100 100
92 7 99 46 7 10 71 8 83 100 100 100 98 100 100 100 100 100 100 100 100 100
5 5 5 10 38 94 100 98 89 100 100 100 100 100 100 100 100 100 100 100 100 100
5 6 85 95 100 94 100 100 100 100 100 100 100 100 100 100 100 100 100 100 100 100
100 97 100 78 76 100 100 100 100 100 100 100 100 100 100 100 100 100 100 100 100 100
100 99 83 99 100 100 100 100 100 100 100 100 100 100 100 100 100 100 100 100 100 100
100 100 100 100 100 100 100 100 100 100 100 100 100 100 100 100 100 100 100 100 100 94
100 100 100 100 100 100 100 100 100 100 100 100 100 100 100 100 100 100 100 100 100 100
100 100 100 100 100 100 100 100 100 100 100 100 100 100 100 100 100 100 88 100 80 22
100 100 100 100 100 100 100 100 93 76 97 100 100 100 91 100 100 100 100 100 100 99
100 100 100 100 100 100 64 15 57 78 100 81 93 100 100 100 96 81 66 68 17 5
46 72 100 68 10 5 65 100 100 94 97 91 100 100 100 100 84 31 6 14 17 5
100 99 72 90 33 81 87 36 20 79 100 98 88 96 100 100 14 6 5 10 48 17
87 75 49 78 100 64 78 87 100 100 97 100 100 100 100 100 61 18 58 38 23 7

GFSNIL_prec_cloud_069.txt.gz
Cloud_Cover
33 5 5 5 4 5 5 60 81 7 25 7 39 66 100 100 100 100 100 100 100 100
43 5 5 25 14 98 39 84 100 100 100 100 100 100 99 100 100 100 100 100 100 100
5 46 70 90 73 100 100 100 100 100 100 100 100 92 96 100 100 100 100 100 100 100
78 82 100 100 100 100 100 100 100 100 100 100 95 100 100 100 100 100 100 100 100 100
100 100 100 100 100 100 100 100 100 100 100 100 100 100 100 100 100 100 100 100 100 100
100 98 100 100 100 100 100 100 100 100 100 100 100 100 100 100 100 100 100 100 100 100
100 100 100 100 100 100 100 100 100 100 100 100 100 100 100 100 100 100 100 100 100 100
100 100 100 100 100 100 100 100 100 100 100 100 100 100 100 100 100 100 100 100 100 98
100 100 100 100 100 100 100 100 100 100 100 100 100 100 100 100 100 100 100 100 26 22
100 100 100 100 98 100 100 100 100 100 100 100 93 100 88 100 75 42 5 5 52 100
89 100 100 100 100 100 90 100 93 59 59 96 100 100 74 19 5 8 30 100 100 100
100 100 100 100 89 94 34 80 98 100 100 100 100 87 75 63 100 100 100 100 99 81
79 56 47 35 21 7 53 86 64 95 50 38 100 100 100 100 100 98 82 51 90 53
79 51 98 45 7 21 74 99 100 98 100 100 100 91 100 100 100 79 41 60 45 50

GFSNIL_prec_cloud_072.txt.gz
Cloud_Cover
100 55 17 43 95 61 35 83 50 100 100 99 100 100 99 34 88 100 100 100 100 100
5 5 78 8 13 11 15 71 97 100 93 94 100 100 100 65 100 100 100 100 100 100
44 32 6 70 100 100 100 100 100 100 100 100 100 100 67 100 100 100 100 100 97 81
100 100 100 100 100 100 100 100 100 100 100 100 100 100 100 100 100 100 100 100 100 99
100 100 100 100 100 100 100 100 100 100 100 100 100 100 100 100 100 100 100 100 100 100
100 100 100 100 100 100 100 100 100 100 100 100 100 100 100 100 100 100 100 100 100 100
100 100 100 100 100 100 100 100 100 100 100 100 100 100 100 100 100 100 100 100 100 100
100 100 100 100 100 100 100 100 100 100 100 100 100 100 100 100 100 100 100 100 100 100
100 100 100 100 100 100 100 100 100 100 100 100 100 100 100 100 100 100 100 100 100 100
100 100 100 100 100 100 100 100 100 100 100 100 100 100 100 100 100 100 100 100 56 5
100 100 100 100 100 100 100 100 100 100 100 100 100 100 100 100 100 68 39 10 27 6
100 100 100 100 100 100 100 87 96 100 100 100 100 100 100 100 20 5 40 16 7 5
100 100 100 100 100 86 18 66 100 100 100 100 100 100 100 28 5 13 5 5 5 5
100 100 95 69 52 24 42 91 99 94 91 100 100 48 60 36 6 17 52 5 18 5

GFSNIL_prec_cloud_078.txt.gz
Cloud_Cover
100 100 100 100 100 100 100 100 100 100 100 93 100 90 100 100 77 100 100 100 100 100
100 100 99 100 100 100 100 100 100 100 100 100 100 98 99 100 70 56 96 100 100 100
8 52 89 98 100 90 100 100 100 100 100 100 100 100 100 99 100 100 100 89 100 100
100 100 100 100 100 100 100 92 94 100 80 100 100 100 100 100 100 100 100 100 100 100
100 99 99 100 99 100 100 100 98 82 100 100 100 100 100 100 100 100 100 100 100 100
100 100 100 100 100 100 100 100 100 100 100 88 100 100 99 100 100 100 100 100 100 100
100 100 100 99 95 100 100 100 100 100 100 100 100 100 100 100 100 100 100 100 100 100
98 86 100 88 100 100 100 100 100 100 100 100 100 100 100 100 100 100 100 100 100 100
4 53 86 100 100 100 100 100 100 100 100 100 100 100 100 100 100 100 100 100 100 100
99 100 100 100 100 100 100 100 100 100 100 100 100 100 100 100 100 100 100 98 100 98
100 100 100 100 100 100 100 100 100 100 100 100 100 100 100 100 100 100 100 100 100 100
100 100 100 100 100 100 100 100 100 100 100 100 100 100 100 100 100 100 100 100 100 100
100 100 100 100 100 100 100 100 100 100 100 100 100 100 100 100 100 100 100 100 100 100
100 100 100 100 100 100 100 100 100 100 100 100 100 100 100 100 100 100 100 100 100 100

GFSNIL_prec_cloud_081.txt.gz
Cloud_Cover
100 100 100 100 100 100 100 100 100 100 100 100 100 100 100 100 100 32 13 9 89 100
100 100 100 100 100 100 100 100 100 100 100 100 100 96 100 100 100 72 44 100 55 44
100 100 100 100 100 100 100 100 100 100 100 100 90 63 100 98 92 91 90 100 100 100
8 12 50 82 57 68 76 96 100 100 100 82 100 85 100 98 100 100 100 100 100 100
60 86 93 78 100 96 86 90 100 100 100 100 100 92 95 100 100 100 100 100 100 100
100 100 100 100 100 88 18 97 99 100 93 78 83 100 100 100 100 100 100 100 100 100
71 84 93 100 100 63 87 47 22 97 100 100 100 100 100 100 100 100 100 100 100 100
20 86 98 100 74 100 100 100 100 100 100 100 100 100 100 100 100 100 100 100 100 100
0 0 0 18 99 100 100 100 100 98 84 100 100 100 100 100 100 100 100 100 100 100
3 2 0 8 94 100 100 100 100 100 100 100 100 100 100 100 100 100 100 100 100 100
34 75 84 100 100 100 100 100 100 100 100 100 100 100 100 100 100 100 100 100 100 100
99 100 100 100 100 100 100 100 100 100 100 100 100 100 100 100 100 100 100 100 100 100
100 100 100 100 100 100 100 100 100 100 100 100 100 100 100 100 100 100 100 100 100 100
100 100 100 100 100 100 100 100 100 100 100 100 100 100 100 100 100 100 100 100 100 100

GFSNIL_prec_cloud_084.txt.gz
Cloud_Cover
100 100 100 100 100 100 100 100 100 100 100 100 100 100 100 100 100 100 100 100 100 100
100 100 100 100 100 100 100 100 100 100 100 100 100 100 100 100 100 100 100 100 100 100
100 100 100 100 100 100 100 100 100 100 100 100 100 100 100 100 100 95 90 99 100 100
100 100 100 100 100 100 100 100 100 100 100 100 100 100 100 84 100 100 100 100 99 98
24 26 79 97 100 100 100 100 100 100 100 100 100 100 100 100 95 56 44 78 95 100
4 12 62 100 79 51 94 100 100 100 90 88 100 100 100 100 99 90 97 99 100 100
5 49 34 13 53 100 59 71 91 100 100 100 100 93 100 100 100 100 100 99 100 100
0 10 90 74 10 7 100 82 86 74 52 55 67 100 99 100 95 88 100 100 100 100
0 0 0 0 35 100 96 87 86 99 100 100 100 100 100 97 100 100 100 100 100 100
4 0 0 0 0 0 72 100 100 82 100 100 91 98 100 100 100 100 100 100 100 100
25 5 5 4 0 20 99 100 100 100 100 100 100 100 100 100 100 100 100 100 100 100
37 62 77 39 96 100 94 100 100 100 100 100 100 100 100 100 100 100 100 100 100 100
100 100 97 100 100 100 100 100 100 100 100 100 100 100 100 100 100 100 100 100 100 100
100 100 100 100 100 100 100 100 100 100 100 100 100 100 100 100 100 100 100 100 100 100

GFSNIL_prec_cloud_087.txt.gz
Cloud_Cover
100 100 100 100 100 100 100 100 100 100 100 100 100 100 100 100 100 100 100 100 100 100
100 100 100 100 100 100 100 100 100 100 100 100 100 100 100 100 100 100 100 100 100 100
100 100 100 100 100 100 100 100 100 100 100 100 100 100 100 100 100 99 100 100 100 100
94 100 100 100 100 100 100 100 100 100 100 100 100 100 100 100 100 100 100 100 100 100
83 100 100 27 38 100 98 100 100 100 100 100 100 100 100 100 100 100 100 100 100 100
75 100 42 88 99 100 58 45 62 100 100 100 100 100 100 100 100 100 100 100 100 94
0 4 8 36 82 88 83 74 72 95 100 100 100 100 99 78 54 43 86 59 90 97
0 0 7 25 96 100 100 100 63 82 10 37 62 20 19 21 35 18 5 31 91 100
0 0 0 0 0 0 21 43 11 21 6 64 32 7 78 27 45 90 100 100 100 100
5 5 0 0 0 3 21 14 0 5 14 41 43 100 100 100 100 100 100 100 100 100
100 54 4 1 0 0 0 2 38 62 59 59 97 100 100 100 100 100 100 100 100 100
100 100 100 42 6 20 41 68 100 100 100 100 100 100 100 100 100 100 100 100 100 100
100 100 100 100 100 100 81 99 100 100 100 100 100 100 100 100 100 100 100 100 100 100
100 100 100 100 100 100 100 100 100 100 100 100 100 100 100 100 100 100 100 100 100 100

GFSNIL_prec_cloud_090.txt.gz
Cloud_Cover
100 100 100 100 100 100 100 100 100 100 100 100 100 100 100 100 100 100 100 100 100 100
100 100 100 100 100 100 100 100 100 100 100 100 98 100 100 100 100 100 100 100 100 100
100 100 100 94 100 100 100 100 100 100 100 100 100 100 100 100 100 100 100 100 100 100
100 96 100 100 100 89 96 100 100 100 100 100 100 100 100 100 100 100 100 100 100 100
100 99 100 100 100 100 87 100 100 100 100 100 100 100 100 100 100 100 100 100 100 100
100 38 52 29 86 100 100 100 100 100 96 100 100 100 100 100 100 100 100 100 100 99
49 21 4 22 29 31 52 54 64 66 96 100 100 75 86 98 100 100 52 55 30 75
5 0 0 56 16 36 92 82 37 22 19 24 44 44 6 88 98 100 23 32 94 58
100 21 2 0 18 4 95 100 100 38 5 5 99 5 27 65 18 25 62 72 100 100
100 100 100 100 20 3 5 84 100 100 30 4 70 100 100 90 71 100 100 100 100 100
100 100 100 100 100 100 59 2 5 46 75 79 100 100 100 94 97 100 100 100 100 100
16 100 100 100 100 100 100 100 95 42 64 100 100 100 100 100 100 100 100 100 100 100
72 100 100 100 100 100 100 100 100 100 100 100 100 100 100 100 100 100 100 100 100 100
94 99 100 100 100 100 100 100 100 100 100 100 100 100 100 100 100 100 100 100 100 100

GFSNIL_prec_cloud_093.txt.gz
Cloud_Cover
99 100 100 100 100 100 100 100 100 100 100 100 100 100 100 100 100 100 100 100 100 100
100 100 100 100 100 100 100 100 100 100 100 100 100 100 100 100 100 100 100 100 100 100
100 100 100 100 100 100 100 100 100 100 100 100 100 100 100 100 100 100 100 100 100 100
100 100 100 100 100 100 100 100 100 100 100 100 100 100 100 100 100 100 100 100 100 100
100 100 100 100 100 100 83 100 100 100 100 100 100 100 100 100 100 100 100 100 100 100
100 100 100 76 43 100 100 97 60 90 98 100 100 100 100 100 100 100 100 100 100 100
100 100 100 83 16 3 64 89 94 99 99 100 100 100 100 100 53 12 34 99 100 100
100 100 100 100 44 20 17 0 5 4 34 80 35 43 16 54 81 96 75 80 13 97
100 100 100 100 100 100 45 10 18 0 0 3 5 5 5 85 95 54 66 80 100 98
79 41 99 100 100 100 99 81 36 100 95 7 5 4 5 45 70 51 73 100 100 100
5 22 92 97 100 100 100 100 100 100 100 100 99 100 98 84 100 100 100 100 100 100
100 10 25 98 100 100 100 100 100 100 100 100 100 100 100 100 100 100 100 100 100 100
100 98 100 100 100 100 100 99 100 100 100 100 100 100 100 100 100 100 100 100 100 100
100 99 100 100 100 100 100 100 100 100 100 100 100 100 100 100 100 100 100 100 100 100

GFSNIL_prec_cloud_096.txt.gz
Cloud_Cover
94 74 97 100 100 100 100 100 100 100 100 100 100 100 100 100 100 100 100 100 100 100
74 62 100 100 100 100 100 100 100 100 100 100 100 100 100 100 100 100 100 100 100 100
20 7 100 100 100 100 100 100 100 100 100 100 100 100 100 100 100 100 100 100 100 100
30 47 77 97 100 100 100 100 100 100 100 100 100 100 100 100 100 100 100 100 100 100
100 98 90 100 100 100 95 99 100 100 100 100 100 100 100 100 100 100 100 100 100 100
100 100 100 100 100 100 100 100 100 100 100 100 100 100 100 100 100 100 100 100 100 100
100 100 100 100 100 100 100 89 89 100 100 100 100 100 100 100 100 100 100 100 100 100
100 100 100 100 100 100 100 30 1 1 16 79 100 100 100 100 98 99 99 100 100 100
91 100 100 100 100 100 95 96 100 36 5 5 2 0 5 26 24 51 95 82 100 100
5 10 88 100 100 100 100 100 100 100 97 18 10 5 5 5 21 39 60 99 100 100
56 31 42 47 94 100 100 100 100 100 99 100 100 96 82 63 100 100 100 100 100 100
100 100 90 100 100 100 100 100 100 100 48 98 100 100 100 100 100 100 100 100 100 100
100 100 100 100 100 100 100 100 100 100 100 100 100 100 100 100 100 100 100 100 100 100
100 100 100 100 100 100 100 100 100 100 100 100 100 100 100 100 100 100 100 100 100 100

GFSNIL_prec_cloud_099.txt.gz
Cloud_Cover
23 94 100 100 100 100 100 100 100 100 100 100 100 100 100 100 100 100 100 100 100 100
8 31 6 93 97 100 100 100 100 100 100 100 100 100 100 100 100 100 100 100 100 100
3 5 1 34 100 100 100 100 100 100 100 100 100 100 100 100 100 100 100 100 100 100
14 2 6 1 100 97 99 100 100 100 100 100 100 100 100 100 100 100 100 100 100 100
26 2 4 16 6 96 68 100 100 100 100 100 100 100 100 100 100 100 100 100 100 100
5 11 0 3 5 92 97 4 95 100 100 100 100 100 100 100 100 100 100 100 100 100
5 5 1 0 2 66 100 86 2 52 100 100 100 100 100 100 100 100 100 100 100 100
15 16 5 2 21 64 100 100 94 39 5 73 100 100 100 100 100 100 100 100 100 100
100 49 5 10 67 53 100 100 100 100 100 98 8 0 4 5 27 58 90 98 95 100
100 100 78 100 100 100 100 100 100 100 89 60 40 8 11 5 5 5 6 5 17 100
100 100 100 100 100 100 100 100 100 100 98 37 5 5 6 9 17 28 25 20 58 99
100 100 100 100 100 100 100 100 100 100 100 100 74 35 31 79 90 97 88 100 100 100
100 100 100 100 100 100 100 100 100 100 100 100 100 100 100 100 100 100 100 100 100 100
100 100 100 100 100 100 100 100 100 100 100 100 100 100 100 100 100 100 100 100 100 100

GFSNIL_prec_cloud_102.txt.gz
Cloud_Cover
1 4 100 60 100 100 100 100 100 100 100 100 100 100 100 100 100 100 100 100 100 100
25 28 42 47 70 83 100 89 100 100 100 100 100 100 100 100 100 100 100 100 100 100
51 8 0 8 53 93 96 98 100 100 100 100 100 100 100 100 100 100 100 100 100 100
54 21 0 1 20 30 86 100 100 100 100 100 100 100 100 100 100 100 100 100 100 100
36 11 1 17 23 23 11 98 100 100 100 100 100 100 100 100 100 100 100 100 100 100
59 36 18 2 21 1 7 2 88 100 100 100 100 100 100 100 100 100 100 100 100 100
98 68 26 5 5 0 2 52 37 56 93 100 100 100 100 100 100 100 100 100 100 100
100 69 12 5 5 5 1 47 99 68 38 78 58 93 100 100 100 100 100 100 100 100
100 97 99 21 5 6 14 48 100 100 99 100 52 6 5 20 100 100 100 100 100 100
100 100 100 100 100 100 100 100 100 100 100 100 84 92 99 73 36 24 16 26 19 74
100 100 100 100 100 100 100 100 100 100 100 100 100 100 100 96 100 100 100 99 99 88
100 100 100 100 96 100 98 100 100 100 99 100 100 100 100 100 100 100 70 95 79 56
100 100 100 100 100 100 100 98 100 92 100 100 100 100 100 100 100 100 100 100 100 100
100 100 100 100 100 100 100 100 100 100 100 100 100 100 100 100 100 100 100 100 100 100

GFSNIL_prec_cloud_105.txt.gz
Cloud_Cover
53 22 15 30 95 93 89 100 100 100 100 100 100 100 100 100 100 100 100 100 100 100
43 15 35 66 100 100 96 98 97 100 100 100 100 100 100 100 100 100 100 100 100 100
51 37 49 66 100 100 70 87 87 100 100 100 100 100 100 100 100 100 100 100 100 100
100 64 64 65 100 97 49 88 97 100 100 100 100 100 100 100 100 100 100 100 100 100
100 90 76 73 86 90 54 81 100 100 100 100 100 100 100 100 100 100 100 100 100 100
100 100 92 84 89 83 71 100 100 100 100 100 100 100 100 100 100 100 100 100 100 100
100 96 80 100 91 79 74 89 100 100 100 100 100 100 100 100 100 100 100 100 100 100
100 100 100 100 100 60 62 60 73 100 100 100 100 100 100 100 100 100 100 100 100 100
100 100 100 100 100 96 96 99 61 100 100 100 100 100 100 100 100 100 100 100 100 100
100 100 100 100 100 100 99 92 38 96 100 100 100 75 33 87 100 100 100 100 100 100
100 100 100 100 100 100 100 100 100 100 100 100 100 100 100 64 47 78 79 73 81 99
100 100 100 100 100 100 100 100 100 100 100 100 100 100 100 100 100 77 60 67 56 50
100 100 100 100 100 100 100 100 100 100 100 100 100 100 100 100 100 100 100 100 100 100
100 100 100 100 100 100 100 100 100 100 100 100 100 100 100 100 100 100 100 100 100 100

GFSNIL_prec_cloud_111.txt.gz
Cloud_Cover
100 35 100 100 99 70 46 87 50 100 100 98 100 100 100 100 100 100 100 100 100 100
78 99 100 100 100 61 25 18 61 100 100 100 87 99 100 100 100 100 100 100 100 100
87 100 100 100 89 43 8 8 100 100 100 100 100 100 100 100 100 100 100 100 100 100
100 100 100 100 92 42 19 99 100 99 100 100 100 100 100 100 100 100 100 100 100 100
100 100 100 100 51 31 20 99 93 89 77 100 100 100 100 100 100 100 100 100 100 100
100 100 100 100 75 88 85 97 64 72 100 100 100 100 100 100 100 100 100 100 100 100
100 100 100 100 99 100 100 100 100 100 100 100 100 100 100 100 100 100 100 100 100 100
100 100 100 100 100 100 100 100 100 71 100 100 100 100 100 100 100 100 100 100 100 100
100 100 100 100 100 100 100 100 100 100 100 100 100 100 83 99 100 100 100 100 100 100
100 100 100 100 100 100 100 100 94 100 100 100 70 28 100 49 100 100 100 100 100 100
100 100 100 100 100 100 100 100 100 100 100 100 94 100 98 86 100 100 100 100 99 100
100 100 100 100 100 100 100 100 100 100 100 100 100 100 100 94 100 100 100 100 100 100
100 100 100 100 100 100 100 100 100 100 100 100 100 100 100 100 100 100 100 100 100 100
100 100 100 100 100 100 100 100 100 100 100 100 100 100 100 100 100 100 100 100 100 100

GFSNIL_prec_cloud_114.txt.gz
Cloud_Cover
100 100 100 96 85 99 100 100 100 100 84 98 100 100 100 100 100 100 100 100 100 100
100 100 100 93 77 100 100 100 100 98 100 94 82 100 100 100 100 100 100 100 100 100
100 100 87 13 100 100 100 100 72 65 100 93 100 100 100 100 100 100 100 100 100 100
44 16 10 28 100 100 100 100 36 53 93 100 100 100 100 100 100 100 100 100 100 100
93 12 14 82 100 100 98 65 99 43 97 100 100 100 100 100 100 100 100 100 100 100
100 100 14 100 100 100 99 90 100 100 74 100 100 100 100 100 100 100 100 100 100 100
100 100 34 100 100 100 64 100 100 100 100 100 100 100 100 100 100 100 100 100 100 100
100 100 100 100 100 100 94 100 100 100 100 100 90 100 100 100 100 100 100 100 100 100
100 96 100 100 100 100 100 100 100 100 100 100 100 100 100 100 100 100 100 100 100 100
100 100 100 100 100 100 100 100 100 100 100 100 100 99 100 96 96 100 100 100 100 100
100 100 100 100 100 100 100 100 100 100 100 100 100 71 100 94 100 100 100 100 100 100
100 100 100 100 100 100 100 100 100 100 100 100 100 100 100 100 100 100 100 100 100 100
100 100 100 100 100 100 100 100 100 100 100 100 100 100 100 100 100 100 100 100 100 100
100 100 100 100 100 100 100 100 100 100 100 100 100 100 100 100 100 100 100 100 100 100

GFSNIL_prec_cloud_117.txt.gz
Cloud_Cover
14 82 100 57 100 100 100 100 100 100 100 100 100 100 100 100 100 100 100 100 100 100
49 98 100 7 11 93 100 100 100 100 100 100 100 100 100 100 100 100 100 78 100 100
39 67 65 6 35 100 100 100 100 100 100 100 100 100 100 100 100 100 100 100 100 100
90 96 72 98 92 100 100 64 100 91 94 100 100 100 100 100 100 100 100 100 100 100
100 100 100 100 100 87 91 100 100 98 21 79 100 100 100 100 100 100 100 100 100 100
100 100 100 100 100 100 100 98 100 82 93 100 100 100 100 100 100 100 100 100 100 100
100 100 100 100 100 100 86 100 100 95 60 100 100 100 100 100 100 100 100 100 100 100
100 100 100 100 100 100 99 100 100 31 83 100 100 100 100 100 100 100 100 100 100 100
100 100 100 100 100 100 100 100 100 39 100 100 100 100 100 100 100 100 98 100 100 100
100 100 100 100 54 100 100 100 100 98 100 100 100 100 100 100 100 100 100 100 100 100
100 100 100 100 97 100 100 100 94 100 100 100 100 100 100 100 100 100 96 100 100 100
100 100 100 100 100 100 100 93 100 100 100 100 100 100 100 100 100 100 100 100 100 100
100 100 100 100 100 100 100 100 100 100 100 100 100 100 100 100 100 100 100 100 100 100
100 100 100 100 100 100 100 100 100 100 100 100 100 100 100 100 100 100 100 100 100 100

GFSNIL_prec_cloud_120.txt.gz
Cloud_Cover
100 98 100 100 100 99 98 100 100 97 97 99 100 100 100 100 100 100 100 100 93 100
100 26 98 97 39 61 100 100 88 60 100 100 100 100 100 100 100 100 100 100 100 87
66 100 100 100 100 67 87 100 67 39 100 100 100 100 100 100 100 100 100 100 100 100
92 100 100 100 100 100 78 98 100 100 94 100 100 100 100 100 100 100 100 100 100 100
100 96 100 100 100 64 100 100 100 100 100 100 100 100 100 100 100 100 100 100 100 100
91 100 100 100 100 100 100 100 100 100 100 100 100 100 100 100 100 83 100 100 100 100
83 100 100 100 100 100 92 100 100 100 100 100 100 100 100 100 100 100 100 100 100 100
71 96 100 97 100 100 100 100 100 100 97 100 100 100 100 100 100 100 96 100 100 100
97 100 100 100 100 100 100 100 100 100 96 100 100 100 100 100 100 100 100 100 100 100
100 100 100 100 100 100 100 100 100 100 100 100 100 100 100 100 100 100 100 100 100 100
100 100 100 100 100 100 100 100 100 100 100 82 98 100 100 100 100 100 100 100 100 100
100 100 100 100 100 100 100 100 100 100 100 83 100 100 100 100 100 100 100 100 100 100
100 100 100 100 100 100 100 100 100 100 96 97 100 100 100 100 100 100 100 100 100 100
99 100 100 100 100 100 100 100 100 100 100 100 100 100 100 100 100 100 100 100 100 100

GFSNIL_prec_cloud_123.txt.gz
Cloud_Cover
99 100 100 100 100 100 100 97 6 45 72 100 58 100 99 96 100 97 100 100 100 100
95 100 62 100 100 100 100 100 20 17 68 78 54 96 89 80 100 100 100 100 100 100
100 100 100 100 96 100 100 100 99 10 60 99 79 100 100 100 100 100 100 100 100 100
95 100 100 100 100 100 100 100 95 100 100 97 95 100 100 100 100 100 100 100 100 99
89 25 5 44 64 100 99 96 92 100 100 100 100 100 100 100 100 100 100 100 100 100
5 11 65 5 28 81 99 100 100 100 100 100 100 100 100 100 100 100 100 100 100 96
12 64 83 100 88 26 100 100 100 100 100 100 100 100 100 100 100 100 100 100 98 97
95 100 100 100 100 56 100 100 100 100 100 100 100 100 100 100 100 100 100 100 91 98
100 100 100 100 100 100 100 100 100 100 100 100 100 100 100 100 100 100 100 100 100 87
100 100 100 100 96 100 100 100 100 100 100 100 100 100 100 100 100 100 100 100 100 100
100 100 100 100 100 100 100 100 100 100 100 100 100 100 100 100 100 100 100 100 100 100
100 100 100 100 100 100 100 100 100 100 100 100 100 100 100 100 100 100 100 100 100 100
100 100 100 100 100 100 100 100 100 100 100 100 100 100 100 100 100 100 100 100 100 100
100 100 100 100 100 100 100 100 100 100 100 100 100 100 100 100 100 100 100 100 100 100

GFSNIL_prec_cloud_126.txt.gz
Cloud_Cover
96 100 100 100 100 100 100 100 100 100 100 100 100 100 99 100 100 100 76 100 100 100
93 100 100 100 100 100 100 100 100 100 100 100 100 100 100 100 93 76 98 99 100 100
100 100 100 100 100 100 100 100 100 100 100 100 100 100 100 100 92 99 100 100 82 100
100 100 100 100 100 100 100 100 100 100 98 100 100 100 100 100 100 100 100 100 100 100
100 100 100 100 100 52 95 100 100 100 99 100 100 100 100 100 100 100 100 100 100 100
100 100 100 100 98 82 19 66 96 100 100 100 100 100 100 100 100 100 100 100 100 100
100 100 97 100 98 55 44 36 40 45 100 100 100 100 100 100 100 100 100 100 100 100
100 100 100 100 100 96 46 54 76 88 100 100 100 100 100 100 100 100 100 100 100 100
95 65 88 100 100 100 87 56 90 100 100 100 100 100 100 100 100 100 100 100 100 100
100 100 100 100 100 100 100 72 100 100 100 100 100 100 100 100 100 100 100 100 100 100
100 100 100 100 100 100 100 100 100 100 100 100 100 100 100 100 100 100 100 100 100 100
100 100 100 100 100 100 100 100 100 100 100 100 100 100 100 100 100 100 100 100 100 100
100 100 100 100 100 100 100 100 100 100 100 100 100 100 100 100 100 100 100 100 100 100
100 100 100 100 100 100 100 100 100 100 100 100 100 100 100 100 100 100 100 100 100 100

GFSNIL_prec_cloud_129.txt.gz
Cloud_Cover
100 100 100 100 14 56 70 93 79 100 100 100 100 100 100 100 100 100 100 100 100 100
100 100 100 98 81 7 55 81 100 100 100 100 100 100 100 100 100 100 100 100 76 90
65 100 100 86 24 67 47 86 100 100 100 100 100 100 100 100 100 100 100 100 100 100
100 100 100 100 100 94 100 99 100 100 100 100 100 100 100 100 100 100 100 100 100 97
100 100 100 100 100 100 31 66 95 97 100 100 100 100 94 100 100 100 100 100 100 100
98 100 100 100 100 100 80 16 6 41 99 100 100 100 100 100 100 100 100 100 100 100
100 77 35 100 100 99 77 55 99 100 100 100 100 100 100 100 100 100 100 100 100 100
100 100 100 100 100 99 92 86 80 73 82 100 100 98 100 100 42 100 100 99 99 100
100 100 100 100 100 100 100 100 100 80 68 68 67 60 98 97 100 100 100 100 100 100
100 89 82 96 100 94 94 100 100 100 99 84 45 34 100 100 100 100 100 100 100 100
100 100 99 82 94 95 100 100 100 100 100 100 84 92 100 100 99 100 100 99 100 100
100 100 100 100 100 100 100 100 100 100 100 100 100 100 100 100 100 100 100 100 100 100
100 100 100 100 100 100 97 100 100 100 100 100 100 100 100 100 100 100 100 100 100 100
100 100 100 99 100 93 100 100 100 100 100 100 100 100 97 100 100 100 100 100 100 100

GFSNIL_prec_cloud_132.txt.gz
Cloud_Cover
100 100 100 100 100 100 100 100 100 100 100 100 100 100 100 100 100 100 100 100 100 100
100 100 96 100 100 100 100 100 100 82 90 100 100 100 100 100 100 100 100 100 100 100
100 92 78 100 100 100 24 31 98 98 93 91 100 100 100 100 100 100 100 100 100 100
22 81 98 64 24 28 16 81 100 97 66 81 100 100 100 100 100 100 100 100 100 100
100 46 22 44 29 5 5 13 87 100 98 26 32 97 35 100 100 100 100 100 100 100
100 100 100 100 100 100 38 96 98 32 69 37 26 45 66 62 100 100 100 100 100 100
100 100 100 100 100 99 100 100 97 100 100 7 100 100 51 10 97 100 100 100 100 100
100 100 100 100 100 98 99 64 99 100 94 87 5 93 98 70 86 100 100 100 100 100
100 100 100 100 100 94 100 100 100 100 100 87 61 42 85 100 100 100 98 100 100 100
100 100 100 100 100 100 100 100 100 100 100 100 100 100 100 100 97 100 100 100 100 98
100 100 100 100 100 100 100 100 100 100 100 100 100 100 100 100 95 100 100 100 76 60
100 100 100 100 100 100 100 100 100 100 100 100 100 100 100 100 100 100 100 100 100 100
100 100 100 100 100 100 100 100 100 97 89 100 100 100 100 100 99 100 100 100 100 99
98 99 100 100 89 84 100 100 100 92 93 100 100 100 100 100 100 100 100 100 100 100